| time (UTC) | temp F | wind direction | speed MPH | gust MPH | rain 1hr in | rain 24hr in | rain mn in | humidity % | barometer mb |
| 20260503183840 | 59 | 253 | 4.0 | 12.0 | 0.00 | 0.00 | 0.00 | 37 | 1015.4 |
| 20260503183338 | 59 | 325 | 6.0 | 11.0 | 0.00 | 0.00 | 0.00 | 34 | 1015.5 |
| 20260503182835 | 59 | 290 | 6.0 | 10.0 | 0.00 | 0.00 | 0.00 | 31 | 1015.4 |
| 20260503182334 | 58 | 263 | 3.0 | 8.0 | 0.00 | 0.00 | 0.00 | 35 | 1015.6 |
| 20260503181831 | 59 | 248 | 7.0 | 16.0 | 0.00 | 0.00 | 0.00 | 35 | 1015.5 |
| 20260503181328 | 59 | 248 | 7.0 | 16.0 | 0.00 | 0.00 | 0.00 | 35 | 1015.5 |
| 20260503180824 | 59 | 250 | 3.0 | 10.0 | 0.00 | 0.00 | 0.00 | 34 | 1015.5 |
| 20260503180323 | 59 | 240 | 11.0 | 16.0 | 0.00 | 0.00 | 0.00 | 32 | 1015.6 |
| 20260503175818 | 59 | 240 | 11.0 | 16.0 | 0.00 | 0.00 | 0.00 | 32 | 1015.6 |
| 20260503175317 | 57 | 257 | 3.0 | 7.0 | 0.00 | 0.00 | 0.00 | 36 | 1015.8 |
| 20260503174812 | 58 | 331 | 15.0 | 21.0 | 0.00 | 0.00 | 0.00 | 34 | 1015.8 |
| 20260503174311 | 57 | 237 | 8.0 | 11.0 | 0.00 | 0.00 | 0.00 | 34 | 1016.0 |
| 20260503173806 | 57 | 210 | 7.0 | 16.0 | 0.00 | 0.00 | 0.00 | 37 | 1015.8 |
| 20260503173302 | 57 | 187 | 4.0 | 15.0 | 0.00 | 0.00 | 0.00 | 36 | 1015.9 |
| 20260503172759 | 58 | 282 | 9.0 | 15.0 | 0.00 | 0.00 | 0.00 | 35 | 1015.9 |
| 20260503172256 | 57 | 315 | 4.0 | 19.0 | 0.00 | 0.00 | 0.00 | 39 | 1016.1 |
| 20260503171752 | 57 | 317 | 9.0 | 18.0 | 0.00 | 0.00 | 0.00 | 37 | 1016.3 |
| 20260503171249 | 57 | 107 | 2.0 | 11.0 | 0.00 | 0.00 | 0.00 | 42 | 1016.3 |
| 20260503170746 | 57 | 232 | 7.0 | 10.0 | 0.00 | 0.00 | 0.00 | 38 | 1016.5 |
| 20260503170243 | 56 | 206 | 3.0 | 12.0 | 0.00 | 0.00 | 0.00 | 44 | 1016.6 |
| 20260503160205 | 53 | 232 | 7.0 | 12.0 | 0.00 | 0.00 | 0.00 | 39 | 1017.1 |
| 20260503150635 | 51 | 202 | 4.0 | 7.0 | 0.00 | 0.00 | 0.00 | 41 | 1017.6 |
| 20260503150131 | 51 | 202 | 4.0 | 7.0 | 0.00 | 0.00 | 0.00 | 41 | 1017.6 |
| 20260503131025 | 46 | 278 | 3.0 | 5.0 | 0.00 | 0.00 | 0.00 | 49 | 1018.0 |
| 20260503130522 | 46 | 278 | 3.0 | 5.0 | 0.00 | 0.00 | 0.00 | 49 | 1018.0 |
| 20260503110413 | 35 | 222 | 1.0 | 1.0 | 0.00 | 0.00 | 0.00 | 84 | 1017.4 |
| 20260503090304 | 34 | 287 | 0.0 | 1.0 | 0.00 | 0.00 | 0.00 | 89 | 1017.2 |
| 20260503081231 | 34 | 298 | 1.0 | 1.0 | 0.00 | 0.00 | 0.00 | 89 | 1017.2 |
| 20260503080726 | 34 | 298 | 0.0 | 1.0 | 0.00 | 0.00 | 0.00 | 88 | 1017.1 |
| 20260503080224 | 34 | 298 | 0.0 | 0.0 | 0.00 | 0.00 | 0.00 | 88 | 1017.2 |
| 20260503072701 | 33 | 298 | 0.0 | 1.0 | 0.00 | 0.00 | 0.00 | 91 | 1017.1 |
| 20260503072157 | 33 | 298 | 1.0 | 1.0 | 0.00 | 0.00 | 0.00 | 91 | 1017.1 |
| 20260503071654 | 33 | 298 | 0.0 | 0.0 | 0.00 | 0.00 | 0.00 | 91 | 1017.2 |
| 20260503071151 | 33 | 298 | 0.0 | 0.0 | 0.00 | 0.00 | 0.00 | 91 | 1017.0 |
| 20260503070648 | 33 | 298 | 0.0 | 1.0 | 0.00 | 0.00 | 0.00 | 91 | 1017.1 |
| 20260503070146 | 33 | 298 | 0.0 | 0.0 | 0.00 | 0.00 | 0.00 | 92 | 1017.1 |
| 20260503060110 | 34 | 298 | 0.0 | 0.0 | 0.00 | 0.00 | 0.00 | 91 | 1017.3 |
| 20260503055102 | 35 | 298 | 0.0 | 0.0 | 0.00 | 0.00 | 0.00 | 91 | 1017.5 |
| 20260503054557 | 35 | 298 | 0.0 | 0.0 | 0.00 | 0.00 | 0.00 | 90 | 1017.5 |
| 20260503054055 | 35 | 298 | 0.0 | 0.0 | 0.00 | 0.00 | 0.00 | 89 | 1017.5 |
| 20260503053553 | 35 | 298 | 0.0 | 0.0 | 0.00 | 0.00 | 0.00 | 87 | 1017.4 |
| 20260503053050 | 36 | 298 | 0.0 | 0.0 | 0.00 | 0.00 | 0.00 | 87 | 1017.5 |
| 20260503052547 | 36 | 298 | 0.0 | 0.0 | 0.00 | 0.00 | 0.00 | 86 | 1017.6 |
| 20260503052043 | 37 | 298 | 0.0 | 0.0 | 0.00 | 0.00 | 0.00 | 84 | 1017.4 |
| 20260503051539 | 37 | 298 | 0.0 | 0.0 | 0.00 | 0.00 | 0.00 | 84 | 1017.5 |
| 20260503051037 | 37 | 336 | 1.0 | 1.0 | 0.00 | 0.00 | 0.00 | 86 | 1017.5 |
| 20260503050532 | 37 | 347 | 0.0 | 1.0 | 0.00 | 0.00 | 0.00 | 84 | 1017.5 |
| 20260503050030 | 37 | 348 | 0.0 | 0.0 | 0.00 | 0.00 | 0.00 | 85 | 1017.3 |
| 20260503045527 | 37 | 348 | 0.0 | 0.0 | 0.00 | 0.00 | 0.00 | 85 | 1017.6 |
| 20260503045024 | 37 | 348 | 0.0 | 0.0 | 0.00 | 0.00 | 0.00 | 86 | 1017.6 |
| 20260503044521 | 37 | 348 | 0.0 | 0.0 | 0.00 | 0.00 | 0.00 | 86 | 1017.6 |
| 20260503044019 | 37 | 348 | 0.0 | 0.0 | 0.00 | 0.00 | 0.00 | 86 | 1017.5 |
| 20260503043514 | 37 | 348 | 0.0 | 0.0 | 0.00 | 0.00 | 0.00 | 86 | 1017.5 |
| 20260503043011 | 37 | 348 | 0.0 | 0.0 | 0.00 | 0.00 | 0.00 | 86 | 1017.5 |
| 20260503042508 | 37 | 348 | 0.0 | 0.0 | 0.00 | 0.00 | 0.00 | 87 | 1017.7 |
| 20260503042004 | 37 | 348 | 0.0 | 0.0 | 0.00 | 0.00 | 0.00 | 88 | 1017.5 |
| 20260503041501 | 37 | 348 | 0.0 | 0.0 | 0.00 | 0.00 | 0.00 | 88 | 1017.6 |
| 20260503040959 | 37 | 348 | 0.0 | 0.0 | 0.00 | 0.00 | 0.00 | 89 | 1017.7 |
| 20260503040456 | 37 | 348 | 0.0 | 0.0 | 0.00 | 0.00 | 0.00 | 90 | 1017.7 |
| 20260503035953 | 37 | 348 | 0.0 | 0.0 | 0.00 | 0.12 | 0.12 | 90 | 1017.7 |
| 20260503035450 | 37 | 348 | 0.0 | 0.0 | 0.00 | 0.12 | 0.12 | 90 | 1017.5 |
| 20260503034948 | 37 | 348 | 0.0 | 1.0 | 0.00 | 0.12 | 0.12 | 89 | 1017.7 |
| 20260503034445 | 37 | 348 | 0.0 | 1.0 | 0.00 | 0.12 | 0.12 | 89 | 1017.6 |
| 20260503033942 | 37 | 349 | 0.0 | 0.0 | 0.00 | 0.12 | 0.12 | 88 | 1017.6 |
| 20260503033439 | 37 | 349 | 0.0 | 0.0 | 0.00 | 0.12 | 0.12 | 89 | 1017.7 |
| 20260503032937 | 37 | 349 | 0.0 | 0.0 | 0.00 | 0.12 | 0.12 | 88 | 1017.8 |
| 20260503032435 | 37 | 349 | 0.0 | 0.0 | 0.00 | 0.12 | 0.12 | 88 | 1017.6 |
| 20260503031932 | 37 | 349 | 0.0 | 0.0 | 0.00 | 0.12 | 0.12 | 88 | 1017.9 |
| 20260503031430 | 37 | 349 | 0.0 | 0.0 | 0.00 | 0.12 | 0.12 | 88 | 1017.9 |
| 20260503030926 | 37 | 349 | 0.0 | 0.0 | 0.00 | 0.12 | 0.12 | 88 | 1017.9 |
| 20260503030423 | 37 | 349 | 0.0 | 0.0 | 0.00 | 0.12 | 0.12 | 88 | 1017.7 |
| 20260503025920 | 37 | 349 | 0.0 | 0.0 | 0.00 | 0.12 | 0.12 | 88 | 1017.9 |
| 20260503025417 | 37 | 349 | 0.0 | 0.0 | 0.00 | 0.12 | 0.12 | 86 | 1018.0 |
| 20260503024914 | 37 | 349 | 0.0 | 0.0 | 0.00 | 0.12 | 0.12 | 86 | 1018.0 |
| 20260503024411 | 37 | 349 | 0.0 | 0.0 | 0.00 | 0.12 | 0.12 | 85 | 1017.9 |
| 20260503023908 | 37 | 349 | 0.0 | 0.0 | 0.00 | 0.12 | 0.12 | 85 | 1018.0 |
| 20260503023405 | 37 | 349 | 0.0 | 0.0 | 0.00 | 0.12 | 0.12 | 84 | 1018.1 |
| 20260503022902 | 37 | 349 | 0.0 | 0.0 | 0.00 | 0.12 | 0.12 | 84 | 1018.1 |
| 20260503022356 | 37 | 349 | 0.0 | 0.0 | 0.00 | 0.12 | 0.12 | 84 | 1018.1 |
| 20260503021852 | 37 | 349 | 0.0 | 0.0 | 0.00 | 0.12 | 0.12 | 84 | 1018.0 |
| 20260503021349 | 37 | 349 | 0.0 | 0.0 | 0.00 | 0.12 | 0.12 | 84 | 1017.9 |
| 20260503020846 | 36 | 349 | 0.0 | 0.0 | 0.00 | 0.12 | 0.12 | 83 | 1018.1 |
| 20260503020344 | 36 | 349 | 0.0 | 0.0 | 0.00 | 0.12 | 0.12 | 83 | 1018.0 |
| 20260503015840 | 36 | 349 | 0.0 | 0.0 | 0.00 | 0.12 | 0.12 | 83 | 1018.1 |
| 20260503015337 | 37 | 349 | 0.0 | 0.0 | 0.00 | 0.12 | 0.12 | 81 | 1018.0 |
| 20260503014833 | 37 | 349 | 0.0 | 0.0 | 0.00 | 0.12 | 0.12 | 81 | 1018.0 |
| 20260503014331 | 37 | 349 | 0.0 | 0.0 | 0.00 | 0.12 | 0.12 | 81 | 1017.8 |
| 20260503013828 | 37 | 349 | 0.0 | 0.0 | 0.00 | 0.12 | 0.12 | 81 | 1018.1 |
| 20260503013325 | 37 | 349 | 0.0 | 0.0 | 0.00 | 0.12 | 0.12 | 79 | 1017.9 |
| 20260503012822 | 37 | 349 | 0.0 | 0.0 | 0.00 | 0.12 | 0.12 | 80 | 1017.9 |
| 20260503012320 | 37 | 349 | 0.0 | 0.0 | 0.00 | 0.12 | 0.12 | 80 | 1017.8 |
| 20260503011816 | 37 | 349 | 0.0 | 0.0 | 0.00 | 0.12 | 0.12 | 78 | 1018.0 |
| 20260503011313 | 37 | 349 | 0.0 | 0.0 | 0.00 | 0.12 | 0.12 | 76 | 1017.9 |
| 20260503010810 | 37 | 349 | 0.0 | 0.0 | 0.00 | 0.12 | 0.12 | 76 | 1017.9 |
| 20260503010307 | 37 | 349 | 0.0 | 0.0 | 0.00 | 0.12 | 0.12 | 75 | 1017.9 |
| 20260503005804 | 38 | 349 | 0.0 | 0.0 | 0.00 | 0.12 | 0.12 | 75 | 1017.9 |
| 20260503005304 | 38 | 349 | 0.0 | 0.0 | 0.00 | 0.12 | 0.12 | 73 | 1018.0 |
| 20260503004757 | 38 | 349 | 0.0 | 0.0 | 0.00 | 0.12 | 0.12 | 70 | 1017.8 |
| 20260503004255 | 39 | 349 | 0.0 | 0.0 | 0.00 | 0.12 | 0.12 | 67 | 1017.8 |
| 20260503003752 | 39 | 349 | 0.0 | 0.0 | 0.00 | 0.12 | 0.12 | 68 | 1017.9 |
| 20260503003249 | 40 | 348 | 0.0 | 0.0 | 0.00 | 0.12 | 0.12 | 64 | 1017.5 |
| 20260503002746 | 40 | 348 | 0.0 | 0.0 | 0.00 | 0.12 | 0.12 | 63 | 1017.6 |
| 20260503002243 | 41 | 348 | 0.0 | 0.0 | 0.00 | 0.12 | 0.12 | 60 | 1017.8 |
| 20260503001739 | 41 | 348 | 1.0 | 1.0 | 0.00 | 0.12 | 0.12 | 58 | 1017.6 |
| 20260503001235 | 41 | 347 | 1.0 | 1.0 | 0.00 | 0.12 | 0.12 | 58 | 1017.7 |
| 20260503000734 | 41 | 347 | 1.0 | 1.0 | 0.00 | 0.12 | 0.12 | 58 | 1017.7 |
| 20260503000233 | 41 | 347 | 1.0 | 1.0 | 0.00 | 0.12 | 0.12 | 58 | 1017.9 |
| 20260502235727 | 41 | 347 | 1.0 | 1.0 | 0.00 | 0.12 | 0.12 | 58 | 1017.6 |
| 20260502235225 | 41 | 334 | 3.0 | 7.0 | 0.00 | 0.12 | 0.12 | 56 | 1017.6 |
| 20260502234721 | 41 | 345 | 2.0 | 3.0 | 0.00 | 0.12 | 0.12 | 57 | 1017.6 |
| 20260502234219 | 41 | 342 | 3.0 | 3.0 | 0.00 | 0.12 | 0.12 | 57 | 1017.6 |
| 20260502233714 | 41 | 323 | 5.0 | 7.0 | 0.00 | 0.12 | 0.12 | 55 | 1017.5 |
| 20260502233211 | 42 | 21 | 4.0 | 8.0 | 0.00 | 0.12 | 0.12 | 56 | 1017.6 |
| 20260502232707 | 42 | 339 | 2.0 | 5.0 | 0.00 | 0.12 | 0.12 | 57 | 1017.7 |
| 20260502232205 | 42 | 336 | 3.0 | 4.0 | 0.00 | 0.12 | 0.12 | 57 | 1017.7 |
| 20260502231701 | 42 | 3 | 2.0 | 3.0 | 0.00 | 0.12 | 0.12 | 57 | 1017.6 |
| 20260502231159 | 42 | 350 | 1.0 | 5.0 | 0.00 | 0.12 | 0.12 | 55 | 1017.7 |
| 20260502230657 | 42 | 335 | 6.0 | 8.0 | 0.00 | 0.12 | 0.12 | 54 | 1017.6 |
| 20260502230155 | 42 | 3 | 5.0 | 11.0 | 0.00 | 0.12 | 0.12 | 54 | 1017.5 |
| 20260502225651 | 42 | 359 | 3.0 | 5.0 | 0.00 | 0.12 | 0.12 | 54 | 1017.6 |
| 20260502225149 | 42 | 4 | 3.0 | 7.0 | 0.00 | 0.12 | 0.12 | 54 | 1017.6 |
| 20260502224644 | 42 | 14 | 7.0 | 14.0 | 0.00 | 0.12 | 0.12 | 53 | 1017.4 |
| 20260502224141 | 42 | 14 | 7.0 | 14.0 | 0.00 | 0.12 | 0.12 | 53 | 1017.4 |
| 20260502223639 | 43 | 329 | 4.0 | 15.0 | 0.00 | 0.12 | 0.12 | 53 | 1017.5 |
| 20260502223137 | 43 | 299 | 7.0 | 8.0 | 0.00 | 0.12 | 0.12 | 51 | 1017.4 |
| 20260502222634 | 43 | 22 | 6.0 | 10.0 | 0.00 | 0.12 | 0.12 | 51 | 1017.5 |
| 20260502222131 | 43 | 349 | 3.0 | 14.0 | 0.00 | 0.12 | 0.12 | 50 | 1017.4 |
| 20260502221626 | 43 | 352 | 4.0 | 7.0 | 0.00 | 0.12 | 0.12 | 48 | 1017.6 |
| 20260502221124 | 43 | 319 | 5.0 | 10.0 | 0.00 | 0.12 | 0.12 | 46 | 1017.3 |
| 20260502220620 | 43 | 311 | 6.0 | 7.0 | 0.00 | 0.12 | 0.12 | 48 | 1017.4 |
| 20260502220116 | 43 | 320 | 3.0 | 10.0 | 0.00 | 0.12 | 0.12 | 46 | 1017.5 |
| 20260502215614 | 43 | 346 | 3.0 | 4.0 | 0.00 | 0.12 | 0.12 | 47 | 1017.4 |
| 20260502215110 | 43 | 310 | 1.0 | 5.0 | 0.00 | 0.12 | 0.12 | 48 | 1017.3 |
| 20260502214607 | 43 | 358 | 7.0 | 10.0 | 0.00 | 0.12 | 0.12 | 46 | 1017.4 |
| 20260502214104 | 43 | 343 | 6.0 | 8.0 | 0.00 | 0.12 | 0.12 | 46 | 1017.3 |
| 20260502213602 | 43 | 354 | 5.0 | 10.0 | 0.00 | 0.12 | 0.12 | 46 | 1017.2 |
| 20260502213059 | 43 | 351 | 8.0 | 10.0 | 0.00 | 0.12 | 0.12 | 47 | 1017.3 |
| 20260502212558 | 43 | 317 | 2.0 | 10.0 | 0.00 | 0.12 | 0.12 | 46 | 1017.1 |
| 20260502212055 | 44 | 317 | 3.0 | 5.0 | 0.00 | 0.12 | 0.12 | 48 | 1017.1 |
| 20260502211550 | 43 | 300 | 2.0 | 4.0 | 0.00 | 0.12 | 0.12 | 50 | 1017.1 |
| 20260502211048 | 44 | 358 | 7.0 | 11.0 | 0.00 | 0.12 | 0.12 | 46 | 1017.1 |
| 20260502210545 | 44 | 323 | 4.0 | 10.0 | 0.00 | 0.12 | 0.12 | 45 | 1017.0 |
| 20260502210042 | 44 | 343 | 3.0 | 8.0 | 0.00 | 0.12 | 0.12 | 47 | 1016.9 |
| 20260502205538 | 44 | 25 | 9.0 | 14.0 | 0.00 | 0.12 | 0.12 | 44 | 1016.9 |
| 20260502205036 | 44 | 285 | 3.0 | 10.0 | 0.00 | 0.12 | 0.12 | 48 | 1016.9 |
| 20260502204532 | 44 | 320 | 5.0 | 8.0 | 0.00 | 0.12 | 0.12 | 44 | 1017.1 |
| 20260502204030 | 45 | 348 | 4.0 | 7.0 | 0.00 | 0.12 | 0.12 | 43 | 1017.0 |
| 20260502203527 | 46 | 310 | 3.0 | 4.0 | 0.00 | 0.12 | 0.12 | 46 | 1016.9 |
| 20260502203024 | 45 | 327 | 3.0 | 3.0 | 0.00 | 0.12 | 0.12 | 52 | 1016.7 |
| 20260502202520 | 45 | 347 | 1.0 | 1.0 | 0.00 | 0.12 | 0.12 | 49 | 1016.9 |
| 20260502202019 | 44 | 292 | 1.0 | 4.0 | 0.00 | 0.12 | 0.12 | 50 | 1017.0 |
| 20260502201514 | 44 | 29 | 3.0 | 4.0 | 0.00 | 0.12 | 0.12 | 49 | 1017.1 |
| 20260502201011 | 44 | 6 | 5.0 | 8.0 | 0.00 | 0.12 | 0.12 | 49 | 1017.1 |
| 20260502200507 | 44 | 333 | 4.0 | 5.0 | 0.00 | 0.12 | 0.12 | 52 | 1017.3 |
| 20260502200005 | 44 | 347 | 2.0 | 5.0 | 0.00 | 0.12 | 0.12 | 53 | 1017.4 |
| 20260502195502 | 44 | 347 | 2.0 | 5.0 | 0.00 | 0.12 | 0.12 | 53 | 1017.4 |
| 20260502194958 | 43 | 304 | 4.0 | 11.0 | 0.00 | 0.12 | 0.12 | 53 | 1017.3 |
| 20260502194455 | 43 | 6 | 6.0 | 7.0 | 0.00 | 0.12 | 0.12 | 55 | 1017.3 |
| 20260502193950 | 43 | 348 | 3.0 | 4.0 | 0.00 | 0.12 | 0.12 | 55 | 1017.4 |
| 20260502193448 | 43 | 335 | 8.0 | 10.0 | 0.00 | 0.12 | 0.12 | 56 | 1017.5 |
| 20260502192944 | 43 | 34 | 1.0 | 5.0 | 0.00 | 0.12 | 0.12 | 58 | 1017.6 |
| 20260502192441 | 43 | 33 | 5.0 | 7.0 | 0.00 | 0.12 | 0.12 | 57 | 1017.5 |
| 20260502191937 | 44 | 294 | 3.0 | 5.0 | 0.00 | 0.12 | 0.12 | 59 | 1017.6 |
| 20260502191435 | 44 | 306 | 3.0 | 5.0 | 0.00 | 0.12 | 0.12 | 59 | 1017.5 |
| 20260502190933 | 44 | 314 | 3.0 | 4.0 | 0.00 | 0.12 | 0.12 | 61 | 1017.7 |
| 20260502190430 | 43 | 324 | 3.0 | 3.0 | 0.00 | 0.12 | 0.12 | 61 | 1017.6 |
| 20260502185926 | 44 | 23 | 1.0 | 4.0 | 0.00 | 0.12 | 0.12 | 58 | 1017.6 |
| 20260502185421 | 43 | 293 | 2.0 | 4.0 | 0.00 | 0.12 | 0.12 | 61 | 1017.9 |
| 20260502184919 | 43 | 37 | 5.0 | 5.0 | 0.00 | 0.12 | 0.12 | 60 | 1017.7 |
| 20260502184414 | 44 | 24 | 6.0 | 7.0 | 0.00 | 0.12 | 0.12 | 61 | 1018.0 |